Dewpoint
49 49 49 49 49 49 50 51 52 52 53 53 52 50 49 49 48 48 47 47 47 47 46 46 49 49 49 48 48 49 50 42 40 38 37 36 43 52 51 51 54 53 55 38 30 27 22 20 19 21 20 21 19 22 20 21 17 17 13 12 9 1 -0 -0 -0 -1 4 7 10 11 12 12 13 46 51 47 31 47 47 48 53 58 60 61 62 63 66 67
48 48 48 49 49 49 49 50 51 52 52 52 52 52 51 51 49 48 47 47 47 46 46 46 47 49 49 47 47 50 45 41 37 35 34 41 50 50 52 52 52 57 57 35 26 22 20 16 17 19 18 15 23 16 22 16 17 15 13 11 4 3 0 4 3 2 2 5 11 12 14 13 14 31 49 35 29 43 51 55 57 59 61 62 63 64 66 66
47 47 48 48 48 49 49 50 50 51 53 53 52 52 51 51 50 48 47 47 47 46 46 46 46 48 49 48 49 49 43 35 34 30 28 56 55 52 51 52 52 52 34 22 22 21 21 14 15 16 15 11 18 15 19 19 17 13 13 11 9 7 8 8 7 5 8 9 11 14 13 13 31 46 52 39 40 49 48 52 55 57 60 59 62 64 65 66
47 47 47 48 48 49 49 49 49 50 50 51 51 51 52 51 51 50 47 47 46 46 46 46 46 48 50 49 50 45 37 34 27 25 42 53 56 59 56 53 52 50 37 24 26 23 25 24 14 12 11 7 13 16 16 20 14 11 14 15 6 9 12 9 7 7 9 14 15 14 14 17 49 52 48 44 45 49 47 52 54 55 59 60 63 63 64 65
47 47 47 47 48 48 48 48 48 49 50 50 51 53 53 52 51 51 50 47 46 47 47 46 48 49 50 49 49 42 37 18 5 36 44 52 52 53 59 58 55 45 37 25 24 25 26 21 13 10 9 7 12 17 14 20 15 19 17 11 12 20 13 9 11 10 15 18 15 15 14 17 51 53 51 47 41 44 47 53 56 56 60 61 62 63 64 64
46 47 47 47 47 47 48 48 48 48 49 50 50 53 53 53 52 51 51 48 47 46 46 47 47 49 50 50 44 39 33 -0 27 29 46 50 49 51 57 61 58 48 37 24 20 22 23 20 12 12 10 3 11 11 11 15 18 18 20 13 20 20 10 15 17 17 17 15 15 15 14 15 34 48 52 48 42 55 58 55 58 59 60 63 63 63 64 64
45 45 47 46 47 46 47 47 48 47 48 49 50 50 51 53 53 52 51 50 47 47 46 46 47 49 50 50 41 37 31 27 26 33 46 47 46 47 55 63 61 49 36 21 15 18 23 19 13 9 7 4 12 9 9 12 19 15 9 17 20 21 18 19 16 17 16 17 17 15 14 13 16 37 51 48 57 59 58 59 58 60 61 63 63 63 63 63
48 46 46 46 46 46 46 47 47 47 48 49 50 50 51 51 52 52 51 51 48 47 47 47 47 49 49 40 35 30 30 24 24 32 43 43 35 33 49 57 55 45 31 17 11 16 22 18 12 9 5 6 9 9 12 15 21 15 10 19 18 17 18 18 16 16 17 18 16 14 13 16 17 32 53 50 58 58 59 59 60 61 63 64 63 63 63 64
48 47 45 45 45 46 46 46 46 47 47 48 49 50 51 51 51 51 51 51 48 47 47 47 47 49 49 41 34 30 19 20 26 30 32 31 30 28 28 50 50 40 28 14 10 15 21 18 12 9 6 6 12 10 19 13 10 12 10 13 19 18 18 16 16 16 16 16 14 14 36 43 36 49 50 59 60 61 61 60 60 62 63 63 63 63 63 64
47 47 46 45 45 45 46 46 47 47 47 48 48 49 51 52 51 52 51 51 49 47 47 47 47 48 44 36 33 27 23 25 34 35 34 31 30 27 26 39 45 38 25 12 9 13 19 18 12 11 13 7 13 10 18 11 11 14 12 14 19 16 17 18 17 17 15 14 15 23 39 50 53 50 55 62 62 62 60 60 61 61 61 62 63 64 65 65
46 46 46 46 45 45 45 46 46 47 47 47 48 48 50 51 51 52 51 50 49 48 46 46 47 46 38 37 32 24 27 24 34 33 30 30 30 27 24 30 42 37 27 12 8 11 19 18 12 11 14 5 13 6 12 12 13 17 16 16 17 14 16 19 17 15 13 11 13 21 44 51 52 53 50 61 63 63 61 61 61 60 61 61 64 64 65 65
47 47 46 46 46 46 46 46 46 46 46 47 47 48 48 50 51 51 51 51 50 48 46 46 47 42 38 34 32 30 32 31 29 29 30 30 29 28 27 25 34 39 28 12 8 11 18 19 14 12 1 11 7 9 16 14 16 16 14 13 14 14 14 16 14 13 14 12 15 22 45 48 46 55 59 61 63 64 62 61 61 61 61 64 64 65 64 65
47 47 47 46 46 46 46 46 46 46 46 46 47 47 48 48 50 50 51 50 49 49 47 45 45 40 38 34 31 33 33 32 30 31 32 31 31 29 26 25 29 39 31 16 7 11 16 17 17 11 7 13 6 8 7 13 14 13 12 9 9 8 7 9 12 12 11 13 21 38 29 41 54 58 59 61 61 62 61 60 60 62 61 61 61 60 60 61
47 47 47 47 47 46 46 46 46 46 45 46 46 47 48 48 50 51 50 50 50 48 47 46 43 39 37 32 33 34 35 34 33 32 32 29 27 23 20 24 32 39 33 20 8 11 15 14 16 12 15 12 11 12 12 11 10 6 7 9 10 5 2 4 10 10 9 26 32 36 28 44 54 58 58 61 60 59 59 60 60 61 61 61 61 61 60 62
47 46 46 46 46 47 46 46 46 46 45 46 47 47 48 49 49 50 51 50 50 49 47 47 42 38 34 29 31 31 46 33 31 29 28 26 25 22 19 22 33 38 31 22 13 14 13 13 16 16 13 14 13 9 9 9 8 4 5 7 6 7 1 8 10 10 7 25 42 39 30 47 54 56 57 59 59 57 57 59 60 61 59 60 59 59 58 61
46 46 46 46 46 46 47 45 46 46 45 45 46 46 48 48 49 50 51 51 50 48 46 42 40 37 32 28 25 34 29 26 26 24 24 25 28 23 18 24 32 32 25 18 17 13 12 13 13 14 10 13 10 7 5 6 7 5 6 10 6 6 5 6 9 10 10 27 36 32 29 49 55 55 58 59 57 56 56 56 57 59 58 58 59 59 59 60
46 46 46 46 46 46 46 46 46 46 46 45 45 46 47 48 49 49 49 50 49 47 44 37 35 37 30 26 26 24 24 24 25 24 24 24 25 25 19 24 25 23 18 18 18 15 16 14 13 14 12 9 8 6 6 9 11 8 6 10 7 3 4 3 8 11 16 25 27 27 27 45 55 55 57 57 56 56 56 57 58 57 58 59 59 59 60 61
46 46 45 45 46 46 46 46 45 45 45 45 45 46 45 47 49 49 48 49 49 46 44 40 36 34 31 33 27 21 26 24 24 25 23 23 24 24 21 24 23 19 18 15 18 15 17 12 15 12 12 11 8 8 9 6 11 11 11 13 12 4 6 3 5 15 19 23 24 40 49 51 55 56 56 57 57 57 56 56 55 56 57 59 60 59 59 60
46 45 45 45 46 46 46 45 45 44 45 46 46 47 48 48 47 44 41 46 42 37 34 36 35 26 12 22 23 23 26 26 24 22 21 20 23 24 22 24 22 19 16 16 18 18 18 14 14 10 9 8 8 7 7 4 3 8 5 7 10 8 5 5 20 19 22 23 33 38 43 48 53 54 56 55 53 53 54 56 55 54 55 56 57 59 59 60
46 46 45 45 46 46 45 45 45 44 44 44 41 42 42 38 35 35 40 43 40 35 31 30 34 30 27 23 19 24 26 23 21 21 23 24 23 22 19 21 20 17 15 14 18 19 17 15 11 9 10 7 9 9 7 11 11 9 7 7 5 2 8 21 24 37 29 24 30 38 44 47 46 51 55 55 53 54 54 53 53 53 52 52 55 57 60 62
46 45 46 46 46 45 45 45 44 44 44 44 44 38 27 27 23 21 32 37 37 37 35 34 31 29 27 26 25 26 25 21 24 24 24 25 25 19 17 19 19 16 13 12 17 19 16 16 12 7 8 8 7 8 15 12 10 11 7 3 5 3 11 21 24 34 40 35 44 45 42 44 44 52 54 54 54 52 54 53 53 54 54 53 56 59 59 60
45 46 46 46 46 45 45 45 44 43 45 44 42 34 30 30 36 39 35 28 32 34 34 35 35 32 31 31 30 30 29 23 21 20 21 24 23 16 18 18 16 11 14 12 16 17 17 13 10 6 6 7 10 11 14 15 10 7 6 5 5 8 28 30 30 30 30 33 42 43 43 45 49 52 54 54 54 54 55 54 54 55 56 57 57 57 57 56
45 46 46 46 45 45 45 45 44 45 44 41 39 34 31 33 38 41 39 36 32 32 33 34 34 31 30 31 29 30 25 19 18 16 19 23 21 17 18 17 16 12 11 12 13 17 16 11 10 6 4 6 10 15 15 13 13 11 9 8 4 22 18 22 31 33 30 31 41 44 44 49 51 52 53 54 54 55 56 56 57 57 56 56 56 57 57 56
45 45 46 46 46 45 45 45 46 45 42 39 38 37 37 41 40 39 37 29 25 23 32 32 32 30 29 27 28 30 24 18 19 20 22 22 19 17 17 17 15 11 5 10 11 9 6 8 9 5 5 8 10 10 11 14 11 14 8 6 4 15 9 16 27 33 37 39 43 44 44 45 49 51 50 54 55 55 57 57 55 56 58 58 58 57 57 57
47 45 46 46 45 45 44 46 44 41 39 39 38 37 41 43 42 37 40 33 29 26 28 29 30 28 27 28 30 26 24 19 19 19 21 23 19 16 16 18 16 11 12 12 8 6 5 6 7 5 3 2 5 7 10 13 9 13 13 7 5 6 27 30 33 31 33 38 41 34 27 35 46 48 49 51 53 54 55 55 54 55 55 56 56 57 57 58
46 46 45 45 45 44 45 40 37 35 37 36 35 35 40 43 42 42 39 25 16 12 25 22 28 24 28 26 27 22 22 20 19 19 22 23 24 17 17 16 17 16 14 7 5 9 5 9 7 5 2 -0 2 4 8 11 11 14 10 8 15 21 27 27 25 22 26 27 37 32 19 33 45 46 48 50 50 52 53 53 53 54 55 55 56 56 56 57
46 45 45 45 45 44 40 35 41 40 36 35 38 43 41 42 46 43 33 22 16 18 21 19 22 17 24 25 24 20 14 12 18 19 19 23 21 21 16 15 19 17 12 14 12 9 11 9 5 4 3 0 1 3 5 9 11 9 10 7 16 26 25 24 24 21 22 21 36 38 31 40 39 44 49 49 50 50 52 52 54 53 54 56 56 56 57 56
46 45 45 43 44 45 38 40 38 35 34 41 42 41 41 43 43 43 30 12 9 19 14 23 20 26 20 24 21 16 14 14 12 15 18 21 24 18 17 16 16 16 14 13 11 10 19 9 4 3 4 0 -0 1 3 7 9 10 9 8 13 20 23 21 17 17 24 30 33 32 29 27 30 42 48 49 49 49 51 52 52 52 52 56 55 56 56 56
46 45 44 44 45 45 46 42 41 38 42 41 41 40 40 44 43 33 19 11 21 16 22 23 26 22 24 23 19 13 12 13 4 16 20 21 23 19 16 18 17 20 17 10 6 18 14 10 4 3 2 1 1 0 5 7 8 11 11 10 13 15 22 19 15 18 27 25 24 26 25 21 19 43 45 47 45 47 49 51 51 52 51 51 54 55 56 57
45 44 44 45 45 45 44 44 42 43 43 46 42 41 42 43 36 25 17 11 19 13 16 23 21 20 25 20 17 11 10 13 16 17 20 20 20 18 15 19 18 20 18 15 7 16 12 17 12 4 3 2 1 2 5 3 7 12 14 15 17 18 18 20 21 21 24 18 19 24 25 16 20 42 40 43 43 46 47 50 51 51 51 52 54 54 55 56
45 44 44 45 44 42 42 39 44 43 41 43 43 44 42 36 26 16 12 22 23 23 21 20 19 23 21 17 14 10 10 13 15 17 17 18 17 16 17 18 20 19 19 14 13 17 15 11 9 5 7 3 4 5 4 3 6 10 10 10 10 15 18 19 21 23 18 14 10 21 26 20 16 33 40 42 44 45 46 48 50 50 50 52 54 54 54 55
45 45 44 44 43 45 43 39 44 41 44 45 44 40 36 23 24 18 14 30 21 20 15 16 21 22 19 15 9 6 10 14 14 14 15 16 17 15 16 18 20 18 15 15 16 16 14 13 10 10 18 7 7 4 2 1 7 6 9 10 12 13 18 12 13 14 11 9 9 20 24 24 20 24 38 41 43 43 47 48 50 51 50 52 53 54 54 54
46 46 46 44 43 44 41 43 44 45 46 45 42 38 28 20 15 16 19 28 25 32 20 19 20 21 19 12 7 7 12 11 13 13 15 15 14 13 15 16 18 19 17 20 17 15 15 13 12 14 12 12 5 1 4 3 4 3 7 11 10 9 10 12 10 13 10 18 22 22 23 19 17 33 37 40 43 45 48 49 51 51 52 53 53 54 54 54
46 45 44 43 43 39 43 44 43 45 45 43 38 30 25 18 14 27 25 28 28 32 29 22 21 19 18 10 6 8 11 12 12 12 12 14 13 16 13 14 16 16 20 21 15 12 14 16 15 13 10 11 6 1 2 3 3 0 3 7 12 12 11 12 9 11 10 11 23 24 24 19 18 29 46 42 42 44 47 48 51 52 53 54 53 52 52 53
45 45 47 46 44 40 42 40 43 44 44 38 35 26 18 15 18 22 26 27 30 30 28 23 21 20 17 8 4 10 12 14 13 13 12 12 14 13 14 12 16 15 15 17 20 18 14 14 14 14 12 11 7 3 4 2 2 1 2 4 10 12 14 8 17 11 13 17 23 28 22 26 33 46 47 48 43 44 47 49 51 52 52 52 52 52 52 53
44 43 44 41 38 40 41 43 43 43 41 37 29 21 17 21 20 28 27 34 32 28 29 24 21 17 13 9 6 10 15 13 13 12 12 12 12 12 12 12 13 15 15 18 20 13 10 14 15 15 16 11 8 6 5 3 10 5 0 5 6 10 10 18 22 31 29 22 19 30 28 33 43 46 44 46 44 43 47 48 51 52 51 52 52 52 53 53
38 42 38 38 36 39 40 41 41 41 41 37 28 17 20 25 31 31 34 31 31 31 30 22 21 15 11 7 8 10 13 12 14 13 15 11 14 12 12 12 13 13 16 17 18 11 11 15 14 14 13 13 10 8 8 4 2 3 6 4 8 11 13 18 11 18 16 15 19 26 21 25 27 27 45 44 42 44 47 48 49 52 51 51 52 52 52 52
40 38 37 35 38 41 42 42 43 43 39 32 26 27 31 28 35 33 36 34 31 31 29 27 21 16 12 5 6 10 12 12 14 12 12 11 16 13 12 11 12 12 14 15 16 19 13 12 13 12 11 12 10 10 7 5 2 4 4 2 8 12 12 19 14 13 12 12 18 25 21 22 22 30 43 42 42 45 47 50 50 50 51 51 52 52 52 53
42 39 31 37 40 41 43 43 45 39 36 29 26 25 31 32 36 36 35 35 33 32 29 30 20 19 10 4 6 10 12 13 13 16 13 13 13 16 12 11 12 13 12 14 15 19 20 14 13 11 10 11 12 10 9 6 6 10 6 1 3 13 14 12 14 18 14 10 19 20 22 24 29 33 41 42 43 46 47 49 49 50 50 51 51 52 52 52
38 35 28 41 41 44 44 47 42 39 32 26 24 25 34 30 30 34 35 35 31 32 32 29 24 19 12 7 6 12 12 11 11 13 13 18 15 16 14 12 11 11 13 14 12 13 16 26 11 11 11 12 10 11 9 6 8 6 7 7 7 17 14 10 20 10 11 12 12 22 24 26 29 33 41 42 44 48 48 48 50 50 50 51 52 51 52 52
40 34 32 42 42 44 45 44 38 31 29 29 32 29 29 28 31 33 34 35 34 33 32 32 27 16 16 6 8 11 13 13 11 14 12 14 16 16 14 12 12 13 13 12 12 18 15 18 13 13 13 11 9 10 8 6 5 3 7 10 6 10 12 12 13 8 11 11 14 18 21 24 31 38 42 44 47 49 48 48 49 51 50 52 52 52 52 52
35 27 31 43 45 44 42 35 34 35 31 28 28 32 30 35 35 36 36 36 35 33 32 32 31 29 13 7 11 11 12 12 13 12 14 14 17 15 13 14 12 12 12 14 15 18 23 19 18 14 13 11 10 11 11 9 9 4 3 4 2 11 12 8 11 16 13 10 15 18 15 20 46 46 41 43 47 48 50 48 48 50 51 51 52 52 52 51
36 32 40 42 44 41 40 33 35 33 31 33 36 35 36 36 34 34 34 36 35 34 32 32 30 30 24 9 11 11 12 15 12 12 12 11 15 13 14 15 14 12 12 16 11 20 23 16 15 10 9 11 13 14 13 13 12 7 5 4 4 9 10 9 11 17 12 13 17 17 17 27 44 48 50 47 49 51 49 48 50 51 52 51 51 51 51 50
38 37 38 44 44 42 37 28 28 29 31 35 35 34 36 35 35 34 35 36 34 34 34 30 30 29 26 19 12 11 12 17 12 11 13 10 13 14 14 14 14 14 14 19 18 23 16 18 14 10 11 12 14 13 12 12 13 13 11 11 5 7 9 15 11 23 15 17 14 11 11 16 47 46 47 49 47 47 48 50 51 50 51 50 50 50 50 49
39 40 41 42 42 41 34 34 32 30 31 31 32 32 35 36 37 36 36 34 34 33 35 32 31 30 23 23 13 12 13 11 19 12 13 9 21 13 13 13 14 16 14 17 27 16 14 21 16 11 11 11 10 9 10 12 13 15 12 8 8 7 17 16 13 18 12 16 12 10 7 35 45 46 44 46 46 47 49 50 51 50 50 49 49 50 49 48
36 30 38 39 42 42 38 38 37 34 32 32 31 33 34 34 36 38 36 35 34 35 35 34 31 30 19 19 16 12 12 11 13 17 11 14 12 10 12 13 13 13 26 35 29 20 20 24 20 18 10 10 12 14 15 12 14 13 15 13 12 8 9 19 19 12 10 14 14 16 14 38 43 42 42 42 46 48 48 50 49 49 49 50 50 49 48 48
39 33 32 30 37 38 36 37 36 36 32 35 30 34 33 34 34 37 36 35 33 36 37 37 30 30 21 17 20 16 11 15 11 13 13 17 18 13 10 11 12 18 39 25 29 18 22 17 20 25 23 21 13 13 20 14 14 13 15 18 15 16 17 20 16 11 17 17 13 20 19 29 37 43 42 43 45 48 49 48 48 49 49 49 49 48 47 47
34 36 38 39 35 30 32 32 37 36 37 36 33 35 34 33 33 33 35 36 36 36 36 33 33 29 18 18 21 22 17 16 15 23 21 23 16 15 10 10 11 29 25 12 17 23 20 14 20 24 24 22 30 29 20 14 12 14 13 18 19 19 20 20 22 18 22 17 13 25 28 25 27 41 43 44 45 46 48 48 49 49 49 48 48 47 47 46
41 38 38 40 35 36 37 37 38 37 36 36 34 35 34 34 34 33 36 35 33 34 35 33 32 28 30 29 18 22 22 19 24 21 25 23 20 19 17 14 10 15 13 16 17 23 21 13 25 19 21 20 24 23 22 16 16 18 16 13 18 19 20 21 22 19 20 26 21 29 26 24 23 40 43 45 47 47 48 49 49 48 48 48 47 47 46 46
34 35 34 37 37 36 37 38 37 37 36 38 33 36 35 35 34 34 33 35 34 35 36 35 34 31 29 25 24 26 39 39 28 27 32 31 24 23 21 21 16 14 10 19 18 30 23 13 25 20 15 19 29 24 21 21 23 24 16 14 14 15 19 21 24 24 24 26 24 26 28 24 39 46 44 46 48 48 48 48 48 48 48 47 47 46 46 45
40 40 40 35 33 36 37 37 36 36 34 34 33 34 35 34 34 34 32 37 36 34 36 37 36 36 35 34 35 37 38 42 40 39 35 31 23 23 21 24 13 21 20 24 25 32 24 23 23 20 13 15 25 27 26 28 25 23 22 22 20 22 21 23 22 24 25 24 26 28 26 21 42 46 46 48 47 47 46 47 48 48 47 47 47 47 46 45
43 45 42 38 32 35 36 37 37 35 32 37 36 35 35 35 35 36 32 36 37 39 38 38 39 39 37 38 38 40 41 42 42 42 40 33 35 29 33 22 14 19 22 24 24 21 17 18 21 15 11 13 24 29 25 25 24 22 24 26 28 27 24 26 26 32 33 29 24 24 19 21 41 45 45 46 46 46 46 46 47 48 48 47 47 46 45 45